EHI
0 0 0 0 0 0 0 0 0 0 0 0 0 0 0 0 0 0 0 0 0 0 0 0 0 0 0 0 0 0 0 0 0 0 0 0 0 0 0 0 0 0 0 0
0 0 0 0 0 0 0 0 0 0 0 0 0 0 0 0 0 0 0 0 0 0 0 0 0 0 0 0 0 0 0 0 0 0 0 0 0 0 0 0 0 0 0 0
0 0 0 0 0 0 0 0 0 0 0 0 0 0 0 0 0 0 0 0 0 0 0 0 0 0 0 0 0 0 0 0 0 0 0 0 0 0 0 0 0 0 0 0
0 0 0 0 0 0 0 0 0 0 0 0 0 0 0 0 0 0 0 0 0 0 0 0 0 0 0 0 0 0 0 0 0 0 0 0 0 0 0 0 0 0 0 0
0 0 0 0 0 0 0 0 0 0 0 0 0 0 0 0 0 0 0 0 0 0 0 0 0 0 0 0 0 0 0 0 0 0 0 0 0 0 0 0 0 0 0 0
0 0 0 0 0 0 0 0 0 0 0 0 0 0 0 0 0 0 0 0 0 0 0 0 0 0 0 0 0 0 0 0 0 0 0 0 0 0 0 0 0 0 0 0
0 0 0 0 0 0 0 0 0 0 0 0 0 0 0 0 0 0 0 0 0 0 0 0 0 0 0 0 0 0 0 0 0 0 0 0 0 0 0 0 0 0 0 0
0 0 0 0 0 0 0 0 0 0 0 0 0 0 0 0 0 0 0 0 0 0 0 0 0 0 0 0 0 0 0 0 0 0 0 0 0 0 0 0 0 0 0 0
0 0 0 0 0 0 0 0 0 0 0 0 0 0 0 0 0 0 0 0 0 0 0 0 0 0 0 0 0 0 0 0 0 0 0 0 0 0 0 0 0 0 0 0
0 0 0 0 0 0 0 0 0 0 0 0 0 0 0 0 0 0 0 0 0 0 0 0 0 0 0 0 0 0 0 0 0 0 0 0 0 0 0 0 0 0 0 0
0 0 0 0 0 0 0 0 0 0 0 0 0 0 0 0 0 0 0 0 0 0 0 0 0 0 0 0 0 0 0 0 0 0 0 0 0 0 0 0 0 0 0 0
0 0 0 0 0 0 0 0 0 0 0 0 0 0 0 0 0 0 0 0 0 0 0 0 0 0 0 0 0 0 0 0 0 0 0 0 0 0 0 0 0 0 0 0
0 0 0 0 0 0 0 0 0 0 0 0 0 0 0 0 0 0 0 0 0 0 0 0 0 0 0 0 0 0 0 0 0 0 0 0 0 0 0 0 0 0 0 0
0 0 0 0 0 0 0 0 0 0 0 0 0 0 0 0 0 0 0 0 0 0 0 0 0 0 0 0 0 0 0 0 0 0 0 0 0 0 0 0 0 0 0 0
0 0 0 0 0 0 0 0 0 0 0 0 0 0 0 0 0 0 0 0 0 0 0 0 0 0 0 0 0 0 0 0 0 0 0 0 0 0 0 0 0 0 0 0
0 0 0 0 0 0 0 0 0 0 0 0 0 0 0 0 0 0 0 0 0 0 0 0 0 0 0 0 0 0 0 0 0 0 0 0 0 0 0 0 0 0 0 0
0 0 0 0 0 0 0 0 0 0 0 0 0 0 0 0 0 0 0 0 0 0 0 0 0 0 0 0 0 0 0 0 0 0 0 0 0 0 0 0 0 0 0 0
0 0 0 0 0 0 0 0 0 0 0 0 0 0 0 0 0 0 0 0 0 0 0 0 0 0 0 0 0 0 0 0 0 0 0 0 0 0 0 0 0 0 0 0
0 0 0 0 0 0 0 0 0 0 0 0 0 0 0 0 0 0 0 0 0 0 0 0 0 0 0 0 0 0 0 0 0 0 0 0 0 0 0 0 0 0 0 0
0 0 0 0 0 0 0 0 0 0 0 0 0 0 0 0 0 0 0 0 0 0 0 0 0 0 0 0 0 0 0 0 0 0 0 0 0 0 0 0 0 0 0 0
0 0 0 0 0 0 0 0 0 0 0 0 0 0 0 0 0 0 0 0 0 0 0 0 0 0 0 0 0 0 0 0 0 0 0 0 0 0 0 0 0 0 0 0
0 0 0 0 0 0 0 0 0 0 0 0 0 0 0 0 0 0 0 0 0 0 0 0 0 0 0 0 0 0 0 0 0 0 0 0 0 0 0 0 0 0 0 0
0 0 0 0 0 0 0 0 0 0 0 0 0 0 0 0 0 0 0 0 0 0 0 0 0 0 0 0 0 0 0 0 0 0 0 0 0 0 0 0 0 0 0 0
0 0 0 0 0 0 0 0 0 0 0 0 0 0 0 0 0 0 0 0 0 0 0 0 0 0 0 0 0 0 0 0 0 0 0 0 0 0 0 0 0 0 0 0
0 0 0 0 0 0 0 0 0 0 0 0 0 0 0 0 0 0 0 0 0 0 0 0 0 0 0 0 0 0 0 0 0 0 0 0 0 0 0 0 0 0 0 0
0 0 0 0 0 0 0 0 0 0 0 0 0 0 0 0 0 0 0 0 0 0 0 0 0 0 0 0 0 0 0 0 0 0 0 0 0 0 0 0 0 0 0 0
Wind_Speed
2 3 6 8 8 3 4 4 3 3 1 2 7 11 13 7 6 8 8 8 8 9 6 5 5 4 3 3 3 3 2 2 1 0 0 1 2 2 2 2 3 3 4 3
3 5 6 4 4 2 2 2 3 3 1 1 5 11 11 8 8 9 9 10 9 7 4 5 5 4 4 4 4 3 3 3 2 2 2 2 2 2 3 3 3 4 4 4
8 3 4 5 4 4 3 5 4 2 3 2 5 9 5 4 3 4 6 7 7 9 8 6 5 5 4 4 5 4 4 3 3 2 1 1 1 2 2 3 3 4 4 5
4 3 3 4 4 6 5 3 3 2 1 4 2 6 7 3 4 4 6 6 7 7 6 6 6 5 6 6 4 4 4 3 3 2 2 2 2 3 4 4 4 5 5 5
5 3 4 5 5 6 4 2 3 1 2 3 1 3 11 2 4 6 6 7 7 6 6 6 6 7 5 4 3 3 3 3 2 2 3 3 3 4 4 4 5 6 5 5
2 2 3 4 2 5 6 5 5 4 3 4 5 5 10 5 6 4 4 4 5 5 5 5 4 3 3 2 2 2 2 3 3 3 3 4 4 5 5 6 6 5 4 5
2 2 1 3 5 3 4 6 3 3 2 7 3 5 12 6 4 4 4 4 4 5 4 4 4 3 3 3 3 2 3 3 3 3 4 4 5 5 6 6 6 6 5 5
6 5 6 4 6 7 6 7 8 7 6 4 2 8 10 4 3 4 3 3 3 4 4 5 5 5 4 4 4 3 4 4 4 4 4 4 5 4 5 6 6 6 6 7
8 5 1 2 2 8 7 4 4 6 1 3 6 7 11 3 2 1 1 1 2 3 4 4 4 4 4 4 4 4 4 5 4 4 4 5 5 5 6 7 6 6 7 7
6 4 1 1 3 3 4 8 5 5 5 5 6 6 6 4 2 1 1 2 3 3 3 3 3 4 3 3 3 3 4 5 5 4 4 5 5 6 6 6 7 8 8 8
4 5 1 1 5 7 5 4 4 4 4 5 4 8 6 5 3 3 4 4 4 4 4 3 3 3 2 2 2 3 3 4 4 4 5 5 6 6 6 7 8 8 8 9
4 5 3 3 1 1 4 6 7 6 5 4 3 10 3 3 4 4 4 3 3 3 3 2 2 2 2 2 2 3 3 4 4 4 4 6 6 6 7 8 9 8 9 9
7 6 4 1 1 0 2 3 4 4 5 5 5 9 3 2 2 2 2 2 2 2 2 2 2 2 3 3 3 3 4 4 4 4 5 6 6 6 7 9 9 8 9 9
5 4 6 9 6 7 5 5 6 6 5 6 9 9 8 5 4 3 3 2 2 2 2 2 3 3 3 3 3 3 4 4 4 4 5 6 7 7 8 9 9 9 8 9
4 3 3 2 2 4 5 7 9 10 9 9 9 9 11 7 5 4 3 3 3 3 3 3 4 4 3 3 3 3 4 4 4 4 5 7 7 7 8 8 9 9 9 9
3 3 2 1 2 3 4 7 11 11 9 9 8 11 8 5 3 3 4 4 4 5 5 4 4 4 4 4 4 4 4 4 4 5 6 7 7 8 8 9 9 9 9 8
3 5 4 2 1 0 8 11 13 9 8 9 13 14 4 3 5 5 5 5 6 6 5 5 5 5 4 4 4 4 4 4 4 5 6 7 7 8 8 9 9 9 9 9
6 5 3 3 3 7 8 3 9 9 8 10 9 7 4 6 4 4 5 5 6 6 5 5 4 4 3 3 3 3 3 4 5 6 7 7 8 9 9 9 9 9 8 8
6 6 4 4 4 7 7 2 5 7 8 8 11 10 5 1 2 4 4 4 6 5 5 4 4 3 2 2 2 2 3 4 5 6 7 8 8 9 9 9 10 8 8 8
3 4 4 4 4 8 6 2 3 4 5 3 6 7 3 2 1 5 2 2 3 3 2 2 2 1 2 3 2 2 4 4 6 7 8 8 8 8 9 9 9 8 7 8
4 3 5 5 5 8 5 1 5 5 6 2 3 4 4 6 6 4 3 3 2 1 1 1 1 1 2 2 1 3 4 5 7 7 7 8 8 8 8 8 7 7 7 7
8 6 6 5 5 9 2 5 6 5 2 1 1 2 3 4 3 3 3 2 1 2 2 1 1 2 3 2 2 4 5 6 6 6 7 8 8 7 7 7 7 7 6 7
6 7 6 8 7 3 3 4 3 2 1 2 2 2 2 2 3 3 2 2 2 2 2 2 1 3 3 2 2 4 6 5 6 6 7 8 8 7 6 6 7 7 5 5
3 1 3 3 5 3 3 3 2 2 2 2 2 1 1 2 3 3 2 2 2 2 2 2 2 3 4 4 3 4 5 5 5 6 7 7 7 7 7 5 5 5 5 5
4 4 3 4 4 3 3 3 3 2 1 1 2 1 1 2 2 2 2 2 2 2 2 2 2 3 5 5 4 4 4 4 5 6 7 7 6 6 6 6 5 6 5 6
4 5 6 6 5 4 4 2 1 2 3 2 2 2 1 1 2 1 1 2 2 2 3 3 3 4 4 4 5 5 4 4 5 6 6 5 5 5 5 6 6 8 8 11
Wind_Direction
105 119 199 203 195 180 161 174 227 253 264 219 249 266 272 264 239 237 234 225 219 225 230 215 206 200 188 191 197 204 210 227 196 227 267 287 286 294 296 285 280 281 282 282
90 234 216 159 167 168 156 193 247 286 343 252 288 278 270 253 234 224 219 217 217 219 219 214 207 193 191 198 205 213 215 220 222 221 224 225 252 274 277 282 289 282 282 282
186 212 170 153 156 177 214 204 214 249 334 3 323 297 275 269 239 228 217 216 214 208 211 210 205 205 204 211 210 215 222 227 231 226 243 316 328 311 300 295 291 285 282 279
212 226 145 149 179 166 226 212 183 198 335 299 18 293 286 279 290 246 224 215 214 212 206 205 203 208 213 217 214 217 222 228 232 214 209 231 265 273 269 275 279 283 276 275
215 184 161 181 195 167 175 104 118 135 161 301 267 237 280 289 264 249 231 222 220 216 206 206 207 210 215 211 209 217 225 237 239 227 219 232 258 266 278 282 283 284 281 274
213 201 179 177 127 146 130 82 61 55 76 269 222 194 272 237 220 237 233 224 220 213 212 214 211 204 214 215 214 215 226 252 247 240 237 234 252 271 282 287 288 288 286 281
210 226 193 135 108 113 123 108 53 353 329 248 183 208 251 248 233 227 237 243 227 208 204 207 208 210 219 222 227 228 231 259 258 253 253 248 251 258 264 274 278 283 286 283
175 223 202 184 168 167 179 155 164 192 222 268 210 234 255 263 273 262 253 241 214 207 211 214 212 210 214 220 224 229 239 259 259 258 264 263 258 260 266 267 269 271 272 272
177 212 99 163 147 140 149 186 156 125 116 281 260 276 295 273 285 284 271 214 230 229 226 224 221 217 218 223 228 226 238 260 264 264 270 274 268 268 272 276 273 273 273 277
150 166 201 147 93 43 145 143 126 141 165 241 280 268 254 270 254 271 259 248 257 261 249 235 224 226 229 231 242 238 238 252 265 267 269 282 280 275 276 281 279 278 278 277
131 133 123 149 189 177 141 149 143 138 164 173 248 267 230 226 235 235 245 251 252 252 249 238 233 239 245 250 245 251 258 265 274 275 279 285 287 286 286 282 279 279 279 279
151 127 167 224 256 206 175 173 156 165 205 190 199 267 278 242 259 248 255 262 266 259 256 247 240 243 247 254 263 266 268 269 274 281 286 286 289 292 291 287 283 281 281 279
147 136 121 32 306 256 202 190 173 133 126 167 191 261 304 328 300 262 246 264 279 286 283 273 258 252 249 254 264 271 273 274 282 286 288 291 293 293 290 288 286 284 282 282
127 144 176 192 204 172 192 197 177 155 175 204 224 253 291 298 295 295 285 274 274 273 271 265 263 261 259 259 260 270 280 281 288 293 291 293 292 291 290 290 290 286 283 282
129 172 201 224 154 156 188 195 189 199 201 205 231 234 253 256 251 256 259 267 276 279 280 264 255 259 267 275 277 278 284 289 293 294 293 291 294 295 294 294 295 293 286 283
132 153 153 235 205 204 234 216 204 219 223 235 259 264 248 250 246 256 257 252 261 269 269 265 262 263 268 269 277 285 288 292 296 292 292 296 301 301 299 298 298 297 293 289
153 143 149 218 195 85 257 217 197 204 210 199 228 246 239 236 239 239 244 245 247 257 261 261 259 257 259 260 263 272 282 296 300 297 299 302 303 301 301 302 303 300 301 296
156 148 153 152 132 227 245 204 191 206 228 215 232 249 233 232 244 246 235 231 247 250 252 255 256 261 268 269 274 284 296 302 301 301 303 304 304 301 303 304 302 303 303 300
177 160 155 163 206 267 284 218 173 190 252 229 231 249 257 271 333 292 242 221 236 243 245 249 248 252 264 268 276 297 304 303 301 301 302 302 302 301 304 304 304 305 305 303
166 163 158 167 190 234 250 226 168 126 272 251 209 236 239 129 246 271 276 260 259 253 243 256 266 270 272 283 290 295 297 301 299 300 300 302 302 300 299 299 301 302 301 300
155 175 190 191 217 256 253 198 129 162 241 254 197 216 194 193 217 253 290 300 284 284 284 274 271 278 276 284 289 290 296 294 296 301 303 304 304 300 297 299 302 303 304 306
169 171 187 173 206 247 203 138 177 214 240 203 211 210 202 224 255 281 294 299 310 323 324 319 305 296 294 287 283 291 293 297 305 307 308 308 308 307 310 308 308 306 307 310
196 188 183 192 214 245 181 194 222 209 228 248 235 246 211 241 270 282 290 292 300 303 307 309 286 297 305 301 283 286 297 309 314 315 313 312 313 313 311 309 311 313 314 311
249 170 164 238 258 255 247 257 259 221 226 257 253 246 205 241 269 281 285 296 308 314 312 313 310 304 306 310 304 290 302 312 314 313 314 315 316 317 317 314 312 313 316 314
206 170 185 242 268 294 273 244 248 254 264 278 284 267 246 244 272 271 270 279 291 302 308 305 288 287 295 306 308 310 312 315 315 313 312 314 316 315 317 318 312 311 305 304
192 181 186 224 225 215 247 256 247 237 257 254 258 290 295 224 245 271 274 278 291 303 312 311 304 302 304 310 311 314 315 314 312 313 314 315 315 315 316 317 317 317 316 321